Flag for Bermuda Weather past 2 weeks in Hamilton, Bermuda

Now
82 °F

Scattered clouds.


Feels Like: 88 °F
Forecast: 80 / 85 °F
Wind: 10 mph from Southeast

Location: Bermuda

Current Time: Jul 31, 2014 at 12:53:53 PM

Latest Report: Jul 31, 2014 at 11:55 AM


Visibility: N/A

Pressure: 30.24 "Hg

Humidity: 74%

Dew point: 73 °F

Location of HamiltonLocation

Historic Weather in Hamilton — Graph

°F

Hamilton temperature yesterday

Maximum temperature yesterday: 84 °F (at 12:55 PM)
Minimum temperature yesterday: 79 °F (at 1:55 AM)
Average temperature yesterday: 82 °F

Past Weeks' High & Low Weather Summary

 TemperatureHumidityPressure
High84 °F (Jul 17, 1:55 PM)89% (Jul 16, 7:55 PM)30.30 "Hg (Jul 16, 7:55 PM)
Low73 °F (Jul 17, 11:55 PM)55% (Jul 20, 2:55 PM)30.09 "Hg (Jul 26, 4:55 AM)
Average81 °F78%30.19 "Hg
* Reported Jul 16 10:55 AM — Jul 31 10:55 AM, Hamilton, Weather by CustomWeather, © 2014

Note: Actual official high and low records may vary slightly from our data, if they occured in-between our weather recording intervals... More about our weather records

Advertising

Hamilton weather history for previous 24 hours

 ConditionsComfort  
Time TempWeatherWind HumidityBarometerVisibility
10:55 AM
Jul 31
82 °FPassing clouds.12 mph74%30.24 "HgN/A
9:55 AM82 °FPassing clouds.9 mph74%30.24 "HgN/A
8:55 AM82 °FScattered clouds.9 mph74%30.24 "HgN/A
7:55 AM81 °FScattered clouds.9 mph74%30.21 "HgN/A
6:55 AM81 °FPassing clouds.10 mph74%30.21 "HgN/A
5:55 AM81 °FPassing clouds.9 mph74%30.21 "HgN/A
4:55 AM81 °FPassing clouds.12 mph79%30.18 "HgN/A
3:55 AM81 °FPassing clouds.13 mph79%30.18 "HgN/A
2:55 AM81 °FPassing clouds.14 mph79%30.18 "HgN/A
1:55 AM81 °FPassing clouds.14 mph79%30.18 "HgN/A
12:55 AM81 °FPassing clouds.13 mph79%30.21 "HgN/A
11:55 PM
Jul 30
81 °FPassing clouds.12 mph84%30.21 "HgN/A
10:55 PM81 °FPassing clouds.12 mph79%30.24 "HgN/A
9:55 PM81 °FPassing clouds.10 mph79%30.24 "HgN/A
8:55 PM81 °FPassing clouds.10 mph79%30.21 "HgN/A
7:55 PM81 °FPassing clouds.10 mph79%30.21 "HgN/A
6:55 PM82 °FPassing clouds.9 mph74%30.21 "HgN/A
5:55 PM82 °FScattered clouds.12 mph74%30.18 "HgN/A
4:55 PM82 °FPassing clouds.12 mph74%30.21 "HgN/A
3:55 PM84 °FPassing clouds.12 mph70%30.21 "HgN/A
2:55 PM84 °FScattered clouds.12 mph70%30.21 "HgN/A
1:55 PM84 °FScattered clouds.12 mph74%30.21 "HgN/A
12:55 PM84 °FPassing clouds.13 mph70%30.21 "HgN/A
Weather by CustomWeather, © 2014

See weather overviewHow to use our weather pages